Location: Hopville
(44.8032°N, 123.1329°W)
Time: 17:33:38
(UTC+00:00)

USA 305 - Pass Details

Date: 24 January 2021
Orbit: 565 x 578 km, 54.0° (Epoch: 27 February)

Event Time Altitude Azimuth Distance (km) Brightness Sun altitude
Exits shadow 14:20:24 14° 239° (WSW) 1,619 4.8 -14.0°
Maximum altitude 14:24:01 79° 325° (NW) 579 2.8 -13.4°
Drops below altitude 10° 14:28:16 10° 53° (NE) 1,863 6.1 -12.7°
Sets 14:30:31 0° 55° (NE) 2,763 7.0 -12.3°
